Simultaneous Nadir Overpasses (SNOs) Predictions

Prediction of SNOs between GOES-15 and NPP Satellite Orbit:

Table of predicted SNOs for the next 14.0 days since TLE Epoch: 7/16/2016
Index Date Time (GOES-15) GOES-15 Lat,Lon NPP Lat,Lon Distance(km) Time Diff (sec)
1 07/18/2016 10:28:02 -0.18,-135.34 -0.21,-135.24 11.74 80
2 07/20/2016 22:28:32 0.19,-135.27 0.04,-136.01 84.59 80
3 07/21/2016 22:12:27 0.18,-135.24 1.03,-131.48 429.16 80
4 07/23/2016 10:31:34 -0.20,-135.20 0.13,-136.75 175.68 80
5 07/24/2016 10:15:29 -0.19,-135.17 -0.86,-132.21 337.65 80
6 07/25/2016 22:34:44 0.21,-135.11 -0.35,-137.51 273.71 80
7 07/26/2016 22:18:39 0.20,-135.07 0.64,-132.97 239.25 80
8 07/28/2016 10:37:46 -0.22,-135.03 0.52,-138.24 366.87 80
9 07/29/2016 10:21:41
